www.pogodaiklimat.ru

Погода и климат >> Архив погоды >> Норвегия >> Кристиансунн аэропорт


ПОГОДА в Кристиансунн аэропорту

  • Прогноз погоды в Кристиансунн аэропорту
  • Монитор погоды в Кристиансунн аэропорту

АРХИВ ПОГОДЫ в Кристиансунн аэропорту

Время (UTC), дата Ветер
(напр.,м/с)
 
Видим.   Явления Облачность Т
(С)
Тd
(С)
f
(%)
Тe
(С)
Тes
(С)
Комфортность P
(гПа)
Po
(гПа)
Тmin
(С)
Tmax
(С)
R
(мм)
R24
(мм)
S
(см)
10 10.07 СВ 3
{4}
н/о н/о +10.7 +9.3 91 +9 +9 1018.5 1010.9
11 10.07 ЮВ 2
{5}
н/о н/о +13.6 +9.3 75 +13 +13 1018.3 1010.8
12 10.07 З 3
{6}
н/о н/о +13.6 +9.1 74 +12 +12 1018.0 1010.5
13 10.07 СЗ 4
{7}
н/о н/о +13.3 +9.4 77 +12 +12 1017.9 1010.4
14 10.07 СЗ 3
{6}
н/о н/о +14.1 +9.5 74 +13 +13 1017.5 1010.0
15 10.07 С 4
{7}
н/о н/о +13.9 +9.6 75 +12 +12 1017.0 1009.5
16 10.07 С 3
{7}
н/о н/о +13.9 +9.8 76 +13 +13 1016.8 1009.3
17 10.07 С 3
{6}
н/о н/о +14.2 +9.6 74 +13 +13 1016.6 1009.1
18 10.07 С 4
{7}
н/о н/о +13.3 +9.4 77 +12 +12 1016.4 1008.9 +10.3 +15.0
19 10.07 С 4
{6}
н/о н/о +12.9 +9.2 78 +11 +11 1016.0 1008.5
20 10.07 С 4
{6}
н/о н/о +11.7 +8.7 82 +10 +10 1015.8 1008.3
21 10.07 С 4
{6}
н/о н/о +11.1 +8.9 86 +9 +9 1015.7 1008.1
22 10.07 С 5
{6}
н/о н/о +10.5 +8.4 87 +7 +7 1015.6 1008.0
23 10.07 С 4
{6}
н/о н/о +10.0 +8.4 90 +7 +7 1015.4 1007.8
00 11.07 С 3
{6}
н/о н/о +9.7 +8.3 91 +7 +7 1015.0 1007.4
01 11.07 СЗ 2
{4}
н/о н/о +9.4 +8.3 93 +8 +8 1014.7 1007.1
02 11.07 С 3
{4}
н/о н/о +9.6 +8.4 92 +7 +7 1014.6 1007.0
03 11.07 С 3
{5}
н/о н/о +9.6 +8.4 92 +7 +7 1014.1 1006.5
04 11.07 СВ 1
{4}
н/о н/о +10.4 +9.2 92 +10 +10 1013.9 1006.4
05 11.07 В 1
{3}
н/о н/о +10.5 +9.4 93 +10 +10 1013.7 1006.1
06 11.07 В 1
{5}
н/о н/о +10.2 +9.1 93 +10 +10 1013.7 1006.1 +9.4 +13.4
07 11.07 СВ 2
{4}
н/о н/о +11.5 +8.7 83 +10 +10 1013.5 1005.9
08 11.07 В 1
{4}
н/о н/о +11.8 +9.0 83 +12 +12 1013.4 1005.9
09 11.07 СВ 2
{5}
н/о н/о +14.0 +8.6 70 +14 +14 1013.2 1005.7
10 11.07 СВ 5
{7}
н/о н/о +14.6 +8.1 65 +13 +13 1013.1 1005.7
11 11.07 С 4
{7}
н/о н/о +15.0 +8.9 67 +14 +14 1012.7 1005.3
12 11.07 С 4
{7}
н/о н/о +15.6 +8.6 63 +15 +15 1012.6 1005.1
13 11.07 С 5
{8}
н/о н/о +15.8 +9.3 65 +15 +15 1012.3 1004.9
14 11.07
{9}
н/о н/о +15.8 +9.0 64 1012.2 1004.7
15 11.07
{8}
н/о н/о +15.8 +9.0 64 1012.1 1004.6
16 11.07 С 6
{9}
н/о н/о +15.3 +9.0 66 +14 +14 1012.0 1004.6
17 11.07 С 6
{10}
н/о н/о +14.8 +9.4 70 +13 +13 1011.7 1004.3
18 11.07 С 6
{10}
н/о н/о +13.8 +9.3 74 +12 +12 1011.7 1004.2 +9.9 +16.6
19 11.07 С 5
{8}
н/о н/о +13.2 +8.9 75 +11 +11 1011.7 1004.2
20 11.07 С 6
{9}
н/о н/о +11.8 +8.7 81 +9 +9 1011.9 1004.4
21 11.07 С 6
{8}
н/о н/о +11.0 +8.4 84 +8 +8 1012.2 1004.7
22 11.07 С 5
{8}
н/о н/о +10.4 +8.3 87 +7 +7 1012.4 1004.9
23 11.07 С 5
{7}
н/о н/о +10.1 +8.2 88 +7 +7 1012.4 1004.9
00 12.07 С 4
{9}
н/о н/о +9.9 +8.2 89 +7 +7 1012.4 1004.8
01 12.07 С 4
{6}
н/о н/о +9.8 +8.1 89 +7 +7 1012.5 1004.9
02 12.07 С 4
{6}
н/о н/о +9.9 +8.2 89 +7 +7 1012.5 1004.9
03 12.07 С 4
{7}
н/о н/о +10.0 +8.1 88 +7 +7 1012.7 1005.1
04 12.07 С 3
{6}
н/о н/о +10.1 +8.0 87 +8 +8 1012.8 1005.2
05 12.07 СВ 4
{6}
н/о н/о +10.0 +7.6 85 +7 +7 1013.0 1005.4
06 12.07 СВ 2
{7}
н/о н/о +10.4 +7.6 83 +9 +9 1013.3 1005.7 +9.8 +14.0
07 12.07 СВ 3
{5}
н/о н/о +11.0 +7.9 81 +9 +9 1013.4 1005.8
08 12.07 С 4
{6}
н/о н/о +11.6 +7.1 74 +9 +9 1013.4 1005.9
09 12.07 СВ 3
{7}
н/о н/о +12.3 +7.0 70 +11 +11 1013.4 1005.9
10 12.07
{7}
н/о н/о +13.4 +7.4 67 1013.5 1006.0
11 12.07 С 4
{6}
н/о н/о +14.2 +7.0 62 +13 +13 1013.5 1006.0
12 12.07 С 4
{8}
н/о н/о +14.5 +7.3 62 +13 +13 1013.6 1006.1
13 12.07 С 5
{7}
н/о н/о +14.2 +8.0 66 +13 +13 1013.6 1006.1
14 12.07 С 6
{9}
н/о н/о +14.0 +8.6 70 +12 +12 1013.8 1006.4
15 12.07 С 6
{8}
н/о н/о +14.0 +8.2 68 +12 +12 1013.7 1006.2
16 12.07 С 5
{8}
н/о н/о +13.4 +8.9 74 +11 +11 1013.8 1006.3
17 12.07 С 6
{8}
н/о н/о +13.8 +8.6 71 +12 +12 1013.8 1006.4
18 12.07 С 6
{9}
н/о н/о +13.1 +8.6 74 +11 +11 1014.0 1006.5 +10.5 +14.8
19 12.07 С 5
{7}
н/о н/о +11.9 +8.2 78 +9 +9 1014.3 1006.8
20 12.07 С 4
{7}
н/о н/о +11.4 +8.1 80 +9 +9 1014.7 1007.2
21 12.07 С 3
{6}
н/о н/о +11.1 +8.3 83 +9 +9 1015.0 1007.4
22 12.07 С 2
{5}
н/о н/о +11.3 +8.4 82 +10 +10 1015.1 1007.6
23 12.07 С 3
{4}
н/о н/о +11.1 +8.3 83 +9 +9 1015.2 1007.7
00 13.07 С 3
{7}
н/о н/о +11.2 +8.4 83 +9 +9 1015.2 1007.6
01 13.07 С 2
{4}
н/о н/о +11.3 +8.0 80 +10 +10 1015.3 1007.7
02 13.07 С 2
{4}
н/о н/о +11.2 +8.3 82 +10 +10 1015.4 1007.8
03 13.07 С 4
{5}
н/о н/о +10.9 +7.8 81 +8 +8 1015.5 1007.9
04 13.07 СЗ 2
{5}
н/о н/о +10.9 +7.0 77 +10 +10 1015.8 1008.2
05 13.07 С 2
{4}
н/о н/о +10.6 +8.0 84 +9 +9 1015.9 1008.4
06 13.07 СВ 3
{5}
н/о н/о +10.9 +8.7 86 +9 +9 1016.0 1008.4 +10.5 +13.1
07 13.07 С 4
{6}
н/о н/о +10.7 +8.6 87 +8 +8 1016.4 1008.8
08 13.07 С 4
{6}
н/о н/о +10.5 +8.8 89 +8 +8 1016.7 1009.1
09 13.07 С 4
{6}
н/о н/о +10.3 +8.9 91 +8 +8 1016.7 1009.1
10 13.07 С 4
{6}
н/о н/о +10.6 +8.7 88 +8 +8 1016.9 1009.4
11 13.07 С 4
{6}
н/о н/о +10.9 +8.3 84 +8 +8 1017.2 1009.6
12 13.07 С 4
{6}
н/о н/о +12.2 +7.5 73 +10 +10 1017.1 1009.6
13 13.07 С 4
{7}
н/о н/о +12.3 +7.2 71 +10 +10 1017.1 1009.6
14 13.07 СЗ 4
{7}
н/о н/о +12.2 +7.3 72 +10 +10 1017.5 1010.0
15 13.07 С 4
{6}
н/о н/о +11.9 +7.0 72 +10 +10 1017.8 1010.2
16 13.07 С 4
{5}
н/о н/о +12.1 +6.6 69 +10 +10 1017.9 1010.3
17 13.07 С 3
{6}
н/о н/о +12.2 +7.1 71 +11 +11 1017.8 1010.3
18 13.07 С 3
{7}
н/о н/о +11.6 +6.9 73 +10 +10 1018.1 1010.5 +10.1 +12.7
19 13.07 С 4
{5}
н/о н/о +11.4 +6.6 72 +9 +9 1018.4 1010.8
20 13.07 С 3
{5}
н/о н/о +11.2 +6.6 73 +9 +9 1018.5 1011.0
21 13.07
{5}
н/о н/о +11.1 +6.3 72 1018.8 1011.2
22 13.07 С 3
{4}
н/о н/о +10.8 +6.2 73 +9 +9 1018.8 1011.2
23 13.07 С 3
{4}
н/о н/о +10.9 +6.7 75 +9 +9 1018.9 1011.3
00 14.07 С 2
{5}
н/о н/о +10.7 +5.3 69 +10 +10 1019.0 1011.4
01 14.07 С 2
{4}
н/о н/о +10.6 +5.4 70 +9 +9 1019.3 1011.7
02 14.07 С 2
{3}
н/о н/о +10.4 +5.6 72 +9 +9 1019.1 1011.5
03 14.07 С 2
{4}
н/о н/о +10.4 +5.4 71 +9 +9 1018.9 1011.3
04 14.07 СЗ 2
{3}
н/о н/о +10.4 +5.2 70 +9 +9 1019.0 1011.4
05 14.07 СЗ 2
{4}
н/о н/о +10.7 +4.8 67 +10 +10 1019.0 1011.4
06 14.07 СЗ 2
{4}
н/о н/о +11.1 +4.8 65 +10 +10 1019.1 1011.5 +10.2 +11.7
07 14.07 З 3
{4}
н/о н/о +11.0 +5.1 67 +9 +9 1019.6 1012.0
08 14.07 СЗ 3
{4}
н/о н/о +10.9 +6.7 75 +9 +9 1019.8 1012.2
09 14.07
{5}
н/о н/о +10.9 +7.2 78 1019.7 1012.1
10 14.07 СЗ 3
{5}
н/о н/о +11.9 +6.8 71 +10 +10 1019.8 1012.3
11 14.07 СЗ 4
{6}
н/о н/о +12.0 +6.9 71 +10 +10 1019.8 1012.3
12 14.07 З 4
{7}
н/о н/о +12.2 +6.5 68 +10 +10 1020.1 1012.5
13 14.07 СЗ 4
{7}
н/о н/о +12.2 +6.7 69 +10 +10 1020.1 1012.5
14 14.07 СЗ 4
{6}
н/о н/о +11.6 +6.7 72 +10 +10 1020.2 1012.6
15 14.07 СЗ 3
{7}
н/о н/о +11.5 +6.6 72 +10 +10 1020.2 1012.7
16 14.07 СЗ 4
{5}
н/о н/о +11.2 +7.5 78 +9 +9 1020.2 1012.6
17 14.07 З 4
{5}
н/о н/о +11.0 +7.1 77 +9 +9 1019.8 1012.2
18 14.07 СЗ 3
{7}
н/о н/о +10.7 +7.8 82 +9 +9 1019.6 1012.0 +10.6 +12.6
19 14.07 СЗ 3
{5}
н/о н/о +10.5 +6.8 78 +9 +9 1019.5 1011.9
20 14.07 З 3
{6}
н/о н/о +10.7 +7.0 78 +9 +9 1019.4 1011.8
21 14.07 З 3
{5}
н/о н/о +10.6 +6.8 77 +9 +9 1019.3 1011.7
22 14.07 З 3
{6}
н/о н/о +9.6 +7.9 89 +7 +7 1019.3 1011.7
23 14.07 ЮЗ 2
{4}
н/о н/о +9.2 +7.7 90 +7 +7 1018.8 1011.2
00 15.07 ЮЗ 3
{6}
н/о н/о +9.3 +7.8 90 +7 +7 1018.5 1010.8
01 15.07 З 4
{8}
н/о н/о +9.0 +7.9 93 +6 +6 1018.3 1010.6
02 15.07 З 3
{5}
н/о н/о +9.3 +8.4 94 +7 +7 1017.9 1010.3
03 15.07 З 5
{7}
н/о н/о +9.3 +8.5 95 +6 +6 1017.6 1010.0
04 15.07 ЮЗ 4
{7}
н/о н/о +9.2 +8.4 95 +6 +6 1017.5 1009.9
05 15.07 ЮЗ 4
{6}
н/о н/о +9.2 +8.4 95 +6 +6 1017.2 1009.6
06 15.07 З 4
{8}
н/о н/о +9.9 +8.8 93 +7 +7 1016.7 1009.1 +9.0 +10.7
07 15.07 З 4
{6}
н/о н/о +10.2 +8.8 91 +7 +7 1016.6 1009.0
08 15.07 З 3
{6}
н/о н/о +10.6 +9.2 91 +8 +8 1016.5 1008.9
09 15.07 ЮЗ 4
{7}
н/о н/о +10.6 +9.5 93 +8 +8 1016.3 1008.7
10 15.07 З 5
{7}
н/о н/о +11.3 +9.9 91 +9 +9 1015.9 1008.4
11 15.07 З 5
{7}
н/о н/о +11.6 +10.2 91 +9 +9 1015.7 1008.2
12 15.07 З 3
{7}
н/о н/о +12.0 +10.6 91 +10 +10 1015.3 1007.8
13 15.07 ЮЗ 3
{5}
н/о н/о +11.6 +10.5 93 +10 +10 1015.1 1007.5
14 15.07 З 5
{8}
н/о н/о +11.5 +10.6 94 +9 +9 1014.7 1007.1
15 15.07 З 6
{10}
н/о н/о +11.3 +10.4 94 +8 +8 1014.7 1007.1
16 15.07 З 4
{9}
н/о н/о +11.0 +10.1 94 +8 +8 1014.7 1007.2
17 15.07 З 5
{7}
н/о н/о +11.2 +10.4 95 +8 +8 1014.9 1007.3
18 15.07 СВ 4
{10}
н/о н/о +10.6 +9.7 94 +8 +8 1015.5 1007.9 +9.9 +12.3
19 15.07 СВ 3
{5}
н/о н/о +10.8 +9.4 91 +9 +9 1016.1 1008.5
20 15.07 С 3
{6}
н/о н/о +10.8 +8.9 88 +9 +9 1016.6 1009.0
21 15.07 С 3
{5}
н/о н/о +10.6 +7.8 83 +9 +9 1016.9 1009.4
22 15.07 С 2
{4}
н/о н/о +10.3 +7.6 83 +9 +9 1017.5 1009.9
23 15.07 С 2
{3}
н/о н/о +10.0 +7.9 87 +8 +8 1017.7 1010.1
00 16.07 С 2
{6}
н/о н/о +10.2 +7.1 81 +9 +9 1017.9 1010.3
01 16.07 С 3
{4}
н/о н/о +10.0 +7.3 83 +8 +8 1018.0 1010.4
02 16.07 СВ 3
{5}
н/о н/о +9.9 +7.3 84 +8 +8 1018.2 1010.6
03 16.07 С 2
{6}
н/о н/о +9.2 +6.8 85 +7 +7 1018.3 1010.6
04 16.07 СВ 3
{4}
н/о н/о +9.9 +7.5 85 +8 +8 1018.3 1010.7
05 16.07 СВ 2
{4}
н/о н/о +10.2 +7.3 82 +9 +9 1018.3 1010.6
06 16.07 СВ 3
{6}
н/о н/о +10.5 +7.6 82 +8 +8 1018.4 1010.8 +9.1 +11.0
07 16.07 СВ 2
{5}
н/о н/о +11.2 +6.4 72 +10 +10 1018.3 1010.7
08 16.07 СВ 3
{5}
н/о н/о +11.4 +6.3 71 +10 +10 1018.2 1010.6
09 16.07 С 4
{5}
н/о н/о +11.7 +6.8 72 +10 +10 1017.8 1010.2
10 16.07 С 4
{5}
н/о н/о +12.6 +6.0 64 +11 +11 1017.6 1010.1
11 16.07 С 5
{7}
н/о н/о +12.9 +6.9 67 +11 +11 1017.5 1009.9
12 16.07 С 5
{8}
н/о н/о +13.3 +7.1 66 +11 +11 1017.1 1009.6
13 16.07 С 7
{9}
н/о н/о +13.7 +7.5 66 +11 +11 1017.0 1009.4
14 16.07 СВ 8
{10}
н/о н/о +13.5 +7.9 69 +11 +11 1016.6 1009.1
15 16.07 СВ 7
{9}
н/о н/о +14.0 +9.0 72 +12 +12 1016.2 1008.7
16 16.07 СВ 7
{10}
н/о н/о +13.8 +8.0 68 +12 +12 1015.9 1008.4
17 16.07 СВ 7
{10}
н/о н/о +13.6 +8.0 69 +11 +11 1015.4 1007.9
18 16.07 СВ 6
{10}
н/о н/о +13.2 +8.1 71 +11 +11 1015.0 1007.5 +10.5 +14.4
19 16.07 С 5
{8}
н/о н/о +12.8 +7.9 72 +11 +11 1014.9 1007.4
20 16.07 С 5
{7}
н/о н/о +12.0 +7.3 73 +10 +10 1015.0 1007.5
21 16.07 С 4
{7}
н/о н/о +11.5 +8.0 79 +9 +9 1014.9 1007.3
22 16.07 С 4
{6}
н/о н/о +11.3 +8.4 82 +9 +9 1014.7 1007.2
23 16.07 С 3
{4}
н/о н/о +10.7 +8.3 85 +9 +9 1014.6 1007.1
00 17.07 СВ 4
{8}
н/о н/о +10.5 +8.4 87 +8 +8 1014.3 1006.8
01 17.07 СВ 3
{5}
н/о н/о +10.5 +8.4 87 +8 +8 1014.2 1006.6
03 17.07 С 2
{3}
н/о н/о +10.5 +8.6 88 +9 +9 1013.7 1006.2
04 17.07 С 1
{3}
н/о н/о +10.8 +8.7 87 +10 +10 1013.6 1006.0
05 17.07 СВ 3
{3}
н/о н/о +11.6 +9.2 85 +10 +10 1013.5 1006.0
06 17.07 СВ 3
{5}
н/о н/о +11.8 +9.0 83 +10 +10 1013.3 1005.8 +10.4 +13.2
07 17.07 В 2
{5}
н/о н/о +12.0 +8.7 80 +11 +11 1013.3 1005.8
08 17.07 СВ 2
{4}
н/о н/о +13.6 +9.3 75 +13 +13 1013.0 1005.5
09 17.07 СВ 2
{5}
н/о н/о +15.5 +9.0 65 +15 +15 1012.7 1005.3
10 17.07 С 4
{6}
н/о н/о +14.2 +9.0 71 +13 +13 1012.7 1005.2

 

Местоположение метеостанции Кристиансунн аэропорт (Норвегия): широта 63.11 долгота 7.82 высота над уровнем моря 62 м.

В архиве по умолчанию представлена погода в Кристиансунн аэропорту за последнюю неделю. Архивные данные за месяц целиком и за предыдущие месяцы, начиная с января 2011 года, Вы можете получить, выбрав интересующий диапазон дат из раскрывающегося списка и нажав кнопку "Ввод!".


*Определитесь, кто Вы:
робот инопланетянин человек

Внимание! Время в таблицах - всемирное. Для получения местного времени необходимо прибавить поправку, которая равна 1 ч.

Смотрите также архив погоды в соседних городах и на ближайших метеорологических станциях:

Погода в Вейхолмене (Норвегия) (46 км)
Погода в Молдэ аэропорту (Норвегия) (49 км)
Погода в Тагдалене (Норвегия) (64 км)
Погода в Тингволл-Ханеме (Норвегия) (65 км)
Погода в Она (Норвегия) (70 км)
Погода на Маннене (Норвегия) (72 км)
Погода в Марстейне (Норвегия) (73 км)
Погода в Рекдале (Норвегия) (74 км)
Погода на Хитра (Норвегия) (79 км)
Погода в Лебергсфелле (Норвегия) (81 км)

Пояснения к столбцам:

Ветер - указаны скорость ветра в м/с - средняя за 10 мин, порывы в срок и между сроками (в фигурных скобках) и направление, откуда дует ветер: С - северный, СВ - северо-восточный, В - восточный, ЮВ - юго-восточный, Ю - южный, ЮЗ - юго-западный, З - западный, СЗ - северо-западный.
Видимость - горизонтальная дальность видимости в метрах или километрах. При видимости от 1 до 10 км при отсутствии осадков обычно наблюдается дымка, при ухудшении видимости до 1 км и менее - туман. В сухую погоду видимость может ухудшаться дымом, пылью или мглою.
Явления - указаны атмосферные явления, наблюдавшиеся в срок или в последний час перед сроком; фигурными скобками обозначены явления, наблюдавшиеся между сроками (за 1-3 часа до срока); квадратными скобками обозначены град или гололедные отложения с указанием их диаметра в мм.
Облачность - указаны через наклонную черту общая и нижняя облачность в баллах и высота нижней границы облаков в метрах; квадратными скобками обозначены формы облаков: Ci - перистые, Cs - перисто-слоистые, Cc - перисто-кучевые, Ac - высококучевые, As - высокослоистые, Sc - слоисто-кучевые, Ns - слоисто-дождевые, Cu - кучевые, Cb - кучево-дождевые. Подробнее классификацию облаков см. в Атласе облаков (PDF).
T - Температура воздуха - температура, измеренная на высоте 2 м над землей.
Td - Температура точки росы - температура, при понижении до которой содержащийся в воздухе водяной пар достигнет насыщения.
f - Относительная влажность воздуха - влажноcть воздуха, измеренная на высоте 2 м над землей.
Te - Эффективная температура - температура, которую ощущает одетый по сезону человек в тени. Характеристика душности погоды. При расчете учитывается влияние влажности воздуха и скорости ветра на теплоощущения человека.
Tes - Эффективная температура на солнце - температура, которую ощущает человек, с поправкой на солнечный нагрев. Характеристика знойности погоды. Зависит от высоты солнца над горизонтом, облачности и скорости ветра. Ночью, в пасмурную погоду, а также при ветре 12 м/с и более поправка равна нулю.
P - Атмосферное давление - приведенное к уровню моря атмосферное давление.
Po - Атмосферное давление - измеренное на уровне метеостанции атмосферное давление.
Tmin - Минимальная температура - минимум температуры воздуха на высоте 2 м над землей.
Tmax - Максимальная температура - максимум температуры воздуха на высоте 2 м над землей.
R - Количество осадков - Количество выпавших осадков за период времени, мм. При наведении курсора мыши на число - период времени, за который выпало указанное количество осадков.
R24 - Количество осадков - Количество выпавших осадков за 24 часа, мм.
S - Снежный покров - Высота снежного покрова, см. При наведении курсора мыши на число - состояние снежного покрова и степень покрытия местности в баллах.